Overview Statistics Trail Chart Weather Telemetry Raw packets
 

This is the latest recevied weather packets stored in our database for station/object KF0WJA. If no packets are shown the sender has not sent any weather packets the latest 10 day(s).

<< 78 79 80 81 82 83 84 >>
Time Temp. Humidity Pressure Rain* Wind** Luminosity Snow
1788098053 28.33° C 55% 1016.6 hPa 0 mm - 179 W/m² -
1788097748 27.78° C 56% 1016.6 hPa 0 mm - 155 W/m² -
1788097444 27.78° C 57% 1016.6 hPa 0 mm - 70 W/m² -
1788097139 27.22° C 58% 1016.5 hPa 0 mm - 65 W/m² -
1788096835 27.22° C 59% 1016.5 hPa 0 mm - 65 W/m² -
1788096529 26.67° C 59% 1016.3 hPa 0 mm - 60 W/m² -
1788096226 26.67° C 59% 1016.5 hPa 0 mm - 61 W/m² -
1788095924 26.11° C 61% 1016.5 hPa 0 mm - 59 W/m² -
1788095625 25.56° C 62% 1016.6 hPa 0 mm - 57 W/m² -
1788095319 25.56° C 63% 1016.6 hPa 0 mm - 52 W/m² -
1788095015 25.56° C 63% 1016.6 hPa 0 mm - 46 W/m² -
1788094714 25.56° C 62% 1016.7 hPa 0 mm - 46 W/m² -
1788094410 25° C 63% 1016.7 hPa 0 mm - 45 W/m² -
1788094107 25° C 64% 1016.8 hPa 0 mm - 43 W/m² -
1788093802 25° C 64% 1016.8 hPa 0 mm - 40 W/m² -
1788093499 24.44° C 65% 1016.6 hPa 0 mm - 35 W/m² -
1788093195 24.44° C 65% 1016.6 hPa 0 mm - 31 W/m² -
1788092893 24.44° C 65% 1016.8 hPa 0 mm - 28 W/m² -
1788092588 24.44° C 65% 1016.7 hPa 0 mm - 23 W/m² -
1788092283 24.44° C 65% 1016.6 hPa 0 mm - 19 W/m² -
1788091982 24.44° C 65% 1016.6 hPa 0 mm - 13 W/m² -
1788091677 23.89° C 65% 1016.7 hPa 0 mm - 9 W/m² -
1788091373 23.89° C 66% 1016.7 hPa 0 mm - 4 W/m² -
1788091070 23.89° C 66% 1016.3 hPa 0 mm - 0 W/m² -
1788090765 23.89° C 66% 1016.3 hPa 0 mm - 0 W/m² -

* Rain latest hour (hover to see other rain measurements)
** Current wind speed in m/s (hover to see current wind gust speed)